Location: Julos
(43.1222°N, 0.0044°E)
Time: 15:34:11
(UTC+00:00)

Daily predictions for brighter satellites

Satellite Brightness Start Highest point End
(mag) Time Altitude Azimuth Time Altitude Azimuth Time Altitude Azimuth
Cosmos 1607 4.4 19:51:44 10° NW 19:58:05 67° WSW 20:04:27 10° SSE
NOSS 2-3 (C) 3.9 19:55:32 10° SSW 19:59:33 46° ESE 20:04:08 10° NE
Cosmos 1666 3.8 19:56:51 10° NNW 20:00:34 46° W 20:04:14 10° SSW
Cosmos 2278 Rocket 3.2 19:56:21 10° SSE 20:00:56 26° ESE 20:05:31 10° NE
STARLINK-1206 3.6 19:57:08 10° SW 20:01:13 62° SE 20:05:19 10° ENE
Cosmos 1975 4.0 19:58:05 10° NNE 20:01:38 28° ENE 20:05:07 10° SE
STARLINK-1159 3.8 19:57:59 10° WNW 20:02:07 70° SW 20:06:14 10° SE
Cosmos 1624 Rocket 4.5 19:59:02 10° S 20:03:58 42° ESE 20:08:59 10° NNE
Cosmos 614 Rocket 4.1 19:59:39 10° NNW 20:04:42 64° ENE 20:09:45 10° SSE
Cosmos 2034 Rocket 4.0 19:58:56 10° N 20:05:09 77° E 20:11:17 10° SSE
Cosmos 1844 Rocket 3.3 20:00:18 10° SW 20:05:56 64° WNW 20:11:33 10° NNE
Cosmos 1140 Rocket 4.2 20:01:18 10° N 20:06:11 39° ENE 20:11:03 10° SE
STARLINK-1205 3.6 20:02:05 10° SW 20:06:11 68° SE 20:10:19 10° ENE
STARLINK-1171 3.9 20:03:01 10° WNW 20:07:07 64° SW 20:11:13 10° SE
Okean 1 3.4 20:03:53 10° S 20:07:50 58° E 20:11:50 10° NNE
H-2A R/B 3.4 20:04:00 10° SSW 20:08:38 38° W 20:13:24 10° NNW
Cosmos 44 Rocket 3.7 20:05:03 10° NW 20:09:53 63° WSW 20:14:47 10° SSE
STARLINK-1218 3.5 20:07:01 10° SW 20:11:09 74° SE 20:15:17 10° ENE
STARLINK-1155 4.0 20:07:59 10° WNW 20:12:04 58° SW 20:16:08 10° SE
Resurs 01 Rocket 1.9 20:09:24 10° SSE 20:13:43 54° ENE 20:18:05 10° N
Meteor 1-4 Rocket 3.4 20:11:55 10° SSE 20:14:57 29° E 20:18:00 10° NNE
STARLINK-1254 3.6 20:11:59 10° SW 20:16:07 81° SE 20:20:16 10° NE
Cosmos 1782 Rocket 3.9 20:12:27 10° N 20:16:50 50° ENE 20:21:10 10° SSE
Cosmos 1515 4.1 20:13:21 10° SSE 20:16:57 42° E 20:20:35 10° NNE
STARLINK-1166 4.1 20:12:59 10° WNW 20:17:01 53° SW 20:20:59 10° SE
Sich 1 Rocket 4.5 20:13:04 10° N 20:17:16 34° ENE 20:21:21 10° SE
Cosmos 1816 Rocket 4.5 20:11:50 10° S 20:17:57 77° E 20:24:05 10° N
Cosmos 1371 Rocket 4.0 20:13:17 10° S 20:18:28 64° ESE 20:23:39 10° NNE
STARLINK-1089 4.4 20:15:16 10° NW 20:19:16 45° NNE 20:23:15 10° ESE
Abrixas rocket 3.6 20:17:11 10° W 20:19:56 35° NNW 20:22:41 10° NE
STARLINK-1231 3.6 20:16:58 10° SW 20:21:06 87° SE 20:25:16 10° NE
Cosmos 1703 Rocket 3.5 20:17:36 10° S 20:21:55 83° E 20:26:16 10° N
STARLINK-1165 4.2 20:17:59 10° WNW 20:21:59 48° SW 20:25:46 11° SSE
ATLAS CENTAUR R/B 4.0 20:21:19 10° W 20:23:08 15° NW 20:24:31 10° N
STARLINK-1107 4.3 20:20:14 10° NW 20:24:16 48° NNE 20:28:17 10° ESE
ISS -1.5 20:21:35 10° NW 20:24:17 21° N 20:26:57 10° ENE
Meteor 1-18 Rocket 4.2 20:19:07 10° S 20:24:38 74° E 20:30:17 10° NNE
USA 186 4.2 20:23:54 10° WSW 20:25:06 13° W 20:26:21 10° WNW
STARLINK-1232 3.7 20:21:56 10° SW 20:26:05 86° NNW 20:30:14 10° NE
STARLINK-1169 4.4 20:22:59 10° WNW 20:26:56 44° SW 20:30:33 12° SSE
STARLINK-1066 4.2 20:25:14 10° NW 20:29:18 52° NNE 20:33:06 11° ESE
Terra 3.9 20:27:06 10° E 20:29:22 13° ENE 20:31:39 10° NNE
STARLINK-1208 3.7 20:26:55 10° WSW 20:31:04 80° NNW 20:35:13 10° NE
Okean 2 Rocket 4.2 20:27:14 10° NNE 20:31:06 29° ENE 20:34:10 14° SE
STARLINK-1081 4.1 20:30:11 10° NW 20:34:17 56° NNE 20:37:52 13° ESE
Spot 2 Rocket 4.0 20:30:33 12° SE 20:34:53 46° ENE 20:39:41 10° N
Cosmos 1908 Rocket 4.3 20:31:07 10° NNW 20:35:29 56° W 20:39:50 10° S
Lacrosse 5 3.2 20:31:28 10° NW 20:35:59 31° NNE 20:40:30 10° E
STARLINK-1271 3.9 20:31:54 10° WSW 20:36:01 74° NW 20:40:11 10° NE
STARLINK-1230 4.4 20:35:00 10° SSW 20:38:33 28° SE 20:42:08 10° ENE
COSMOS 2406 3.3 20:33:28 10° NNW 20:39:15 68° ENE 20:44:03 15° SE
STARLINK-1070 4.0 20:35:09 10° NW 20:39:15 60° NNE 20:42:38 15° ESE
CREW DRAGON DEMO-1 DEB 3.3 20:37:07 10° WNW 20:40:08 49° SW 20:42:05 19° SSE
MetOp-B 4.2 20:35:46 12° SSE 20:40:42 65° ENE 20:46:01 10° N
Cosmos 1544 3.0 20:37:22 10° N 20:41:00 75° E 20:44:03 14° SSE
STARLINK-1154 4.0 20:36:55 10° WSW 20:41:02 68° NNW 20:45:10 10° NE
Meteor 2-4 Rocket 3.8 20:36:19 10° S 20:41:31 52° E 20:46:42 10° NNE
Cosmos 676 Rocket 4.3 20:37:02 10° NNW 20:42:11 54° ENE 20:46:14 16° SE
Cosmos 371 Rocket 4.2 20:38:42 12° SSE 20:42:23 29° E 20:46:35 10° NE
STARLINK-1087 3.9 20:41:03 10° W 20:42:27 17° SW 20:43:08 14° SSW
Cosmos 1023 Rocket 4.5 20:38:11 10° NNW 20:43:25 85° ENE 20:47:56 14° SSE
STARLINK-1243 4.3 20:39:49 10° SSW 20:43:29 31° SE 20:47:10 10° ENE
SAR-Lupe-2 4.1 20:40:20 10° NNE 20:43:45 40° E 20:46:22 15° SSE
STARLINK-1069 3.9 20:40:07 10° NW 20:44:14 65° NNE 20:47:25 16° ESE
Cosmos 1634 Rocket 4.1 20:38:59 10° N 20:45:19 71° E 20:51:10 12° SSE
Cosmos 389 Rocket 4.2 20:42:28 10° SW 20:45:38 34° WNW 20:48:52 10° N
STARLINK-1197 4.1 20:41:54 10° WSW 20:46:00 63° NNW 20:50:07 10° NE
SL-4 R/B 3.4 20:44:10 10° N 20:46:25 18° NE 20:48:05 12° E
Iridium 51 4.2 20:42:21 10° S 20:46:28 87° E 20:50:16 10° N
Cosmos 2056 Rocket 3.5 20:41:46 10° SSW 20:46:53 84° WNW 20:52:02 10° NNE
STARLINK-1236 4.2 20:44:42 10° SSW 20:48:28 34° SE 20:52:13 10° ENE
STARLINK-1085 3.8 20:45:06 10° NW 20:49:15 70° NNE 20:52:13 18° ESE
STARLINK-1198 4.3 20:46:56 10° WSW 20:51:01 58° NNW 20:55:07 10° NE
STARLINK-1086 3.7 20:50:04 10° NW 20:54:13 75° NE 20:56:59 20° ESE
Cosmos 1356 4.4 20:52:13 10° NNW 20:55:31 45° W 20:58:41 11° SSW
STARLINK-1199 4.4 20:51:55 10° WSW 20:55:59 54° NNW 21:00:03 10° NE
Crew Dragon 2.8 20:54:44 10° NNW 20:56:00 14° NNE 20:57:18 10° NE
STARLINK-1269 3.9 20:54:27 10° SSW 20:58:20 41° SE 21:02:14 10° ENE
STARLINK-1095 3.6 20:55:03 10° NW 20:59:13 81° NE 21:01:47 22° ESE
IGS 5A 3.5 20:57:51 21° SSE 21:00:32 64° ENE 21:04:40 10° N
STARLINK-1200 3.8 20:59:22 10° SSW 21:03:19 45° SE 21:07:17 10° ENE
CARTOSAT-1 4.4 21:01:34 21° ESE 21:03:50 37° ENE 21:07:49 10° N
STARLINK-1077 3.6 21:00:02 10° NW 21:04:11 88° NE 21:06:34 25° SE
BREEZE M DEB (TANK) 3.0 20:58:18 10° SW 21:05:55 67° SSE 21:08:40 10° ENE
Okean 3 3.4 21:02:15 12° S 21:06:10 83° E 21:10:30 10° N
STARLINK-1192 3.7 21:04:17 10° SSW 21:08:17 50° SE 21:12:17 10° ENE
STARLINK-1075 3.5 21:05:01 10° NW 21:09:10 86° SW 21:11:20 27° SE
Cosmos 2082 Rocket 2.7 21:07:05 10° NNW 21:12:39 50° ENE 21:16:03 23° SE
SPOT 5 3.5 21:10:01 23° SE 21:12:56 47° ENE 21:18:01 10° N
STARLINK-1244 3.6 21:09:12 10° SW 21:13:14 54° SE 21:17:17 10° ENE
STARLINK-1093 3.6 21:10:00 10° WNW 21:14:08 79° SW 21:16:08 30° SE
Cosmos 1461 4.1 21:15:49 24° ESE 21:15:49 24° ESE 21:19:03 10° ENE
Cosmos 1833 Rocket 2.6 21:11:22 10° NNW 21:17:01 85° ENE 21:20:27 25° SSE
Cosmos 1452 Rocket 3.5 21:12:48 12° S 21:17:39 65° ESE 21:22:54 10° NNE
STARLINK-1138 3.6 21:14:07 10° SW 21:18:11 60° SE 21:22:17 10° ENE
Aureole 1 Rocket 4.2 21:14:09 10° NW 21:18:18 43° WSW 21:22:40 14° S
STARLINK-1074 3.6 21:14:58 10° WNW 21:19:06 72° SW 21:20:54 32° SE
GENESIS II 4.3 21:17:17 10° NW 21:21:19 73° WSW 21:22:58 33° SSE
Landsat 7 3.9 21:18:39 22° S 21:21:45 77° WSW 21:26:33 10° NNW
Cosmos 1420 Rocket 4.1 21:17:10 10° SSW 21:22:23 80° WNW 21:27:37 10° NNE
Aureole 2 Rocket 4.1 21:24:16 17° ENE 21:24:16 17° ENE 21:25:32 10° NE
STARLINK-1143 3.5 21:19:03 10° SW 21:23:09 65° SE 21:27:16 10° ENE
Cosmos 1300 Rocket 3.5 21:19:31 10° N 21:23:59 89° W 21:26:23 27° S
Cosmos 2369 Rocket 4.2 21:26:15 10° E 21:26:15 10° E 21:26:58 10° E
Cosmos 304 Rocket 4.4 21:24:47 29° SE 21:26:12 36° ESE 21:30:35 10° NE
STARLINK-1203 3.5 21:22:38 10° SW 21:26:49 72° SE 21:31:00 10° ENE
STARLINK-1241 3.5 21:24:01 10° SW 21:28:08 72° SE 21:32:16 10° ENE
Cosmos 1943 Rocket 3.8 21:28:55 16° E 21:28:57 16° E 21:32:16 10° ENE
STARLINK-1088 3.8 21:24:58 10° WNW 21:29:03 60° SW 21:30:28 37° SSE
STARLINK-1239 3.5 21:28:58 10° SW 21:33:06 78° SE 21:37:15 10° ENE
Intercosmos 24 3.8 21:29:43 10° NNW 21:33:20 66° W 21:34:51 32° SSW
Cosmos 1066 Rocket 4.4 21:31:09 29° SSE 21:33:38 50° E 21:38:48 10° NNE
STARLINK-1115 3.9 21:29:57 10° WNW 21:34:00 55° SW 21:35:14 38° SSE
ERBS 3.3 21:31:14 10° WSW 21:34:26 46° NW 21:37:39 10° NE
Cosmos 332 Rocket 3.7 21:32:39 22° S 21:35:49 72° ESE 21:40:43 10° NNE
STARLINK-1126 4.5 21:32:16 10° NW 21:36:17 44° NNE 21:38:31 23° E
STARLINK-1240 3.5 21:33:56 10° SW 21:38:05 85° SE 21:42:14 10° NE
Cosmos 1674 Rocket 3.4 21:36:52 33° S 21:38:44 74° E 21:43:08 10° NNE
STARLINK-1076 4.0 21:34:57 10° WNW 21:38:58 50° SW 21:40:01 39° S
STARLINK-1082 4.4 21:37:12 10° NW 21:41:14 47° NNE 21:43:15 25° E
USA 245 4.4 21:40:16 20° SSW 21:41:55 30° WSW 21:44:41 10° NW
STARLINK-1216 3.5 21:38:54 10° SW 21:43:02 88° NW 21:47:12 10° NE
Meteor 1-15 Rocket 4.4 21:37:31 10° N 21:43:28 67° ENE 21:46:14 32° SSE
SPOT 1/Viking Rocket 3.9 21:40:42 24° S 21:43:46 59° W 21:48:53 10° NNW
STARLINK-1092 4.1 21:39:55 10° WNW 21:43:53 46° SW 21:44:47 39° S
NOSS 2-2 (E) 4.4 21:45:11 26° E 21:45:11 26° E 21:47:30 10° NE
Cosmos 2278 Rocket 3.2 21:39:13 10° SW 21:44:41 48° WNW 21:50:12 10° NNE
Cosmos 1378 Rocket 3.5 21:43:25 39° SSE 21:44:53 65° E 21:49:16 10° NNE
STARLINK-1100 4.3 21:42:11 10° NW 21:46:14 50° NNE 21:48:03 29° E
NOSS 8 (E) 4.0 21:47:09 63° SSW 21:47:36 84° ESE 21:50:38 10° NE
STARLINK-1237 3.6 21:43:53 10° WSW 21:48:01 82° NW 21:52:11 10° NE
STARLINK-1080 4.2 21:45:00 10° WNW 21:48:54 41° SW 21:49:37 38° SSW
Resurs 01 Rocket 4.2 21:47:59 10° SW 21:50:32 15° W 21:53:05 10° NW
STARLINK-1083 4.1 21:47:07 10° NW 21:51:12 54° NNE 21:52:48 32° E
Cosmos 1741 Rocket 3.9 21:47:22 10° NNW 21:52:38 83° ENE 21:54:36 39° SSE
STARLINK-1202 3.7 21:48:53 10° WSW 21:53:01 76° NW 21:57:11 10° NE
STARLINK-1090 4.3 21:49:58 10° WNW 21:53:50 38° SW 21:54:22 36° SSW
Cosmos 1437 Rocket 3.0 21:53:11 33° SSW 21:54:40 62° WNW 21:58:27 10° N
Abrixas rocket 3.8 21:53:16 10° WNW 21:55:54 29° N 21:57:11 20° NE
STARLINK-1125 4.0 21:52:07 10° NW 21:56:13 58° NNE 21:57:36 37° E
Okean 2 4.4 21:56:17 30° E 21:56:17 30° E 21:59:55 10° NNE
Cosmos 1975 Rocket 4.1 21:57:35 30° E 21:57:48 30° E 22:01:41 10° NNE
STARLINK-1089 4.5 21:55:00 10° WNW 21:58:46 34° SW 21:59:08 34° SSW
SeaSat 1 2.8 21:56:17 10° NE 22:00:57 41° ESE 22:01:28 40° SE
STARLINK-1109 3.9 21:57:05 10° NW 22:01:12 63° NNE 22:02:22 42° E
ISS -3.5 21:58:11 10° NW 22:01:32 62° NNE 22:01:47 60° NE
ERS-1 Rocket 3.5 22:00:14 29° SSW 22:02:33 53° W 22:07:28 10° NNW
STARLINK-1246 4.0 21:58:52 10° WSW 22:02:58 65° NNW 22:07:06 10° NE
Nadezhda 4 Rocket 3.9 22:00:37 29° S 22:03:59 89° E 22:10:09 10° N
Cosmos 1850 Rocket 4.1 22:00:04 10° NNW 22:05:25 74° WSW 22:07:19 40° S
STARLINK-1091 3.8 22:02:03 10° NW 22:06:10 68° NNE 22:07:09 48° E
Terra 1.8 22:04:57 43° S 22:06:28 77° WSW 22:11:15 10° NNW
NOSS 2-2 (C) 4.1 22:08:28 33° ENE 22:08:28 33° ENE 22:10:57 10° NE
STARLINK-1224 4.1 22:03:53 10° WSW 22:07:58 60° NNW 22:12:05 10° NE
ATLAS 2AS CENTAUR R/B 4.3 22:07:59 20° ESE 22:08:25 20° ESE 22:13:50 10° ENE
Cosmos 1110 Rocket 3.9 22:08:58 41° S 22:10:47 75° ESE 22:15:58 10° NNE
STARLINK-1072 3.7 22:07:01 10° NW 22:11:10 73° NE 22:11:55 56° E
STARLINK-1225 4.3 22:08:52 10° WSW 22:12:57 56° NNW 22:17:02 10° NE
STARLINK-1096 3.6 22:12:00 10° NW 22:16:10 79° NE 22:16:44 64° ESE
ATLAS 3B CENTAUR R/B 4.4 22:11:34 10° SW 22:15:14 17° SSW 22:15:14 17° SSW
STARLINK-1230 4.4 22:13:54 10° WSW 22:17:57 52° NNW 22:22:01 10° NE
BREEZE-M DEB (TANK) 4.0 22:00:07 10° WSW 22:18:13 81° NNW 22:22:31 10° ENE
Lacrosse 5 1.9 22:14:17 10° NW 22:19:17 64° SW 22:20:15 52° S
Cosmos 1766 3.2 22:15:31 10° N 22:19:29 67° E 22:19:37 66° E
SL-4 R/B 3.1 22:16:55 10° NW 22:18:54 23° W 22:18:54 23° W
STARLINK-1079 3.5 22:16:59 10° NW 22:21:09 86° NE 22:21:31 73° ESE
Okean 1 Rocket 3.4 22:17:11 10° NNW 22:21:37 60° W 22:22:37 47° SW
EXPRESS MD2 4.0 22:20:30 10° WSW 22:24:07 75° NNW 22:31:34 10° ENE
USA 238 DEB 4.5 22:17:25 10° NNW 22:24:22 49° NE 22:28:52 23° ESE
STARLINK-1116 3.4 22:21:57 10° NW 22:26:07 88° SSW 22:26:17 82° SE
Cosmos 1733 3.4 22:22:55 10° N 22:26:32 60° ENE 22:26:32 60° ENE
Cosmos 1455 Rocket 3.4 22:28:12 10° N 22:32:26 49° ENE 22:32:37 48° E
Cosmos 1331 Rocket 4.0 22:30:41 41° SSW 22:32:32 79° WNW 22:37:43 10° NNE
STARLINK-1094 3.6 22:31:57 10° WNW 22:35:52 72° WSW 22:35:52 72° WSW
Cosmos 1302 Rocket 4.0 22:37:48 56° SE 22:38:30 62° ESE 22:43:44 10° NNE
STARLINK-1117 3.8 22:36:55 10° WNW 22:40:38 63° WSW 22:40:38 63° WSW
Cosmos 2297 4.3 22:39:18 20° SW 22:43:07 56° WNW 22:48:44 10° NNE
Cosmos 1092 Rocket 4.0 22:41:42 38° SSW 22:44:11 73° W 22:50:20 10° N
Cosmos 1758 4.5 22:40:54 10° N 22:44:24 33° ENE 22:44:24 33° ENE
STARLINK-1078 4.0 22:41:55 10° WNW 22:45:26 55° W 22:45:26 55° W
Meteor 1-22 Rocket 4.3 22:40:36 10° NNW 22:46:35 79° W 22:48:05 51° S
Meteor 2-13 Rocket 4.4 22:45:42 50° S 22:47:26 78° E 22:53:36 10° N
STARLINK-1108 4.2 22:46:55 10° WNW 22:50:12 47° W 22:50:12 47° W
Aureole 3 Rocket 4.2 22:46:49 10° N 22:52:30 67° E 22:54:52 44° SSE
Cosmos 1461 4.3 22:52:06 20° WSW 22:54:31 37° NW 22:58:34 10° NNE
STARLINK-1071 4.4 22:51:55 10° WNW 22:54:59 41° W 22:54:59 41° W
Cosmos 2082 Rocket 3.7 22:51:49 10° NW 22:56:23 25° WSW 22:57:54 22° SW
Cosmos 1536 Rocket 4.5 22:57:54 36° ENE 22:57:54 36° ENE 23:01:26 10° NNE
STARLINK-1106 4.5 22:54:11 10° NW 22:58:11 46° NNE 22:58:58 40° ENE
ATLAS 5 CENTAUR R/B 4.0 23:00:58 12° NE 23:00:58 12° NE 23:01:10 10° NE
EO 1 Del DPAF 3.5 22:55:25 10° N 22:58:54 63° NW 22:58:54 63° NW
SL-27 R/B 3.5 22:56:44 10° N 22:59:33 43° NNE 22:59:33 43° NNE
ALOS 2 3.2 23:01:01 44° ENE 23:01:11 44° ENE 23:05:22 10° N
Cosmos 1470 3.3 22:57:37 10° N 23:00:55 53° NE 23:00:55 53° NE
STARLINK-1112 4.3 22:59:10 10° NW 23:03:13 49° NNE 23:03:46 46° ENE
Thor Agena Rocket 3.8 22:58:33 10° N 23:03:50 68° WNW 23:05:15 47° SW
USA 215 3.3 23:03:20 33° ESE 23:06:33 77° NE 23:13:06 10° NW
STARLINK-1128 4.2 23:04:08 10° NW 23:08:12 53° NNE 23:08:33 51° NE
Cosmos 1992 Rocket 4.5 23:08:31 44° E 23:08:31 44° E 23:13:18 10° NNE
Cosmos 1544 Rocket 3.5 23:04:10 10° N 23:08:21 82° N 23:08:21 82° N
Cosmos 2369 Rocket 2.1 23:07:59 62° S 23:08:57 80° ESE 23:14:38 10° NNE
Cosmos 1943 Rocket 2.3 23:10:23 46° SW 23:12:00 71° WNW 23:17:36 10° NNE
STARLINK-1113 4.1 23:09:06 10° NW 23:13:12 57° NNE 23:13:19 56° NE
SL-8 R/B 3.9 23:09:09 10° WNW 23:13:58 69° NNE 23:15:05 50° E
S3M 4.0 23:11:40 10° N 23:17:48 68° E 23:19:11 53° SE
STARLINK-1119 4.0 23:14:04 10° NW 23:18:06 61° NNE 23:18:06 61° NNE
Cosmos 1842 4.4 23:18:55 36° WNW 23:18:55 36° WNW 23:22:32 10° N
Cosmos 1655 Rocket 3.9 23:20:26 56° SSE 23:21:42 73° E 23:27:56 10° NNE
NOSS 3-2 (C) 4.2 23:14:40 10° NNW 23:22:14 70° NE 23:26:35 32° SE
STARLINK-1114 4.0 23:19:02 10° NW 23:22:52 63° N 23:22:52 63° N
ATLAS CENTAUR R/B 3.5 23:25:24 17° ENE 23:25:24 17° ENE 23:26:51 10° ENE
Cosmos 1726 3.4 23:22:57 10° N 23:25:42 36° NE 23:25:42 36° NE
STARLINK-1130 (DARKSAT) 4.0 23:24:01 10° NW 23:27:40 62° NNW 23:27:40 62° NNW
NOSS 3-4 (A) 3.5 23:29:50 53° SE 23:30:06 53° ESE 23:36:08 10° NE
NOSS 3-4 (C) 3.5 23:29:57 52° SE 23:30:12 53° ESE 23:36:14 10° NE
ATLAS 3B R/B 3.9 23:26:34 10° NNW 23:32:48 37° NE 23:38:47 12° ESE
STARLINK-1084 4.1 23:28:58 10° NW 23:32:26 59° NNW 23:32:26 59° NNW
Cosmos 1553 Rocket 4.1 23:28:00 10° NNW 23:34:16 68° W 23:35:37 53° SSW
CENTAUR R/B 3.3 23:26:55 10° NNW 23:35:01 72° NE 23:39:47 31° SE
STARLINK-1098 4.2 23:33:58 10° NW 23:37:14 54° NW 23:37:14 54° NW
SeaSat 1 4.1 23:34:04 10° N 23:38:19 30° NW 23:41:13 17° WSW
Cosmos 292 Rocket 4.0 23:39:18 58° W 23:39:46 61° WNW 23:44:36 10° NNE
STARLINK-1123 4.3 23:38:57 10° NW 23:42:01 48° NW 23:42:01 48° NW
Cosmos 1242 Rocket 4.3 23:45:39 28° WNW 23:45:39 28° WNW 23:48:28 10° NNW
YAOGAN 11 4.4 23:46:53 59° ENE 23:46:53 59° ENE 23:51:05 10° N
Cosmos 2263 4.2 23:46:08 56° SW 23:47:14 72° WNW 23:52:52 10° NNE
Helios 1A 3.2 23:52:18 70° N 23:52:18 70° N 23:56:03 10° NNW
Cosmos 1656 Rocket 3.5 23:51:32 70° SSW 23:52:15 89° ESE 23:57:53 10° NNE
Cosmos 1503 Rocket 3.9 23:48:27 10° NNW 23:53:47 90° W 23:54:12 77° SSE
Cosmos 1271 Rocket 4.1 23:55:25 32° WNW 23:55:25 32° WNW 23:58:35 10° N
